    Observer details:
    104 San Marcello Pistoiese.  Observers P. Bacci, M. Maestripieri.  Measurers
        P. Bacci, L. Tesi, G. Fagioli.  0.60-m reflector + CCD.
    106 Crni Vrh.  Observer S. Maticic.  0.6-m f/3.3 Deltagraph + CCD.
    118 Astronomical and Geophysical Observatory, Modra.  Observer S. Gajdos.
        0.6-m f/5.5 reflector + CCD.
    203 GiaGa Observatory.  Observers S. Foglia, G. Galli.  Measurer G. Galli.
        0.36-m f/5.76 Schmidt-Cassegrain + CCD.
    204 Schiaparelli Observatory.  Observer L. Buzzi.  0.84-m f/3.5 reflector +
        CCD.
    595 Farra dIsonzo.  Observers U. Montanar, E. Pettarin.  Measurer
        E. Pettarin.  0.40-m f/5.15 reflector + CCD.
    C77 Bernezzo Observatory.  Observer A. Mantero.  0.25-m f/4.0 reflector + CCD.
    C95 SATINO Remote Observatory, Haute Provence.  Observer J. Jahn.  0.60-m
        f/3.2 Newtonian reflector + CCD.
    F51 Pan-STARRS 1, Haleakala.  Observers J. Bulger, T. Lowe, A. Schultz,
        M. Willman.  Measurers K. Chambers, S. Chastel, T. de Boer, L. Denneau,
        J. Fairlamb, H. Flewelling, M. Huber, C.-C. Lin, E. Magnier,
        Y. Ramanjooloo, R. Wainscoat, R. Weryk.  1.8-m Ritchey-Chretien + CCD.
    G40 Slooh.com Canary Islands Observatory.  Observer W. F. Cashwell.  0.43-m
        f/6.8 Corrected Dall-Kirkham + CCD.
    I93 St Pardon de Conques.  Observer F. Losse.  0.40-m f/3.7 reflector + CCD.
    J95 Great Shefford.  Observer P. Birtwhistle.  0.41-m f/6.3
        Schmidt-Cassegrain + CCD.
    K38 M57 Observatory, Saltrio.  Observer G. Baj.  0.3-m f/5.5 Ritchey-Chretien
        + CCD.
    K63 G. Pascoli Observatory, Castelvecchio Pascoli.  Observer R. Bacci.
        0.41-m f/3.2 Newtonian reflector + CCD.
    K88 GINOP-KHK, Piszkesteto.  Observer B. Cseh.  Measurer K. Sarneczky.
        0.60-m Schmidt + CCD.
    L01 Visnjan Observatory, Tican.  Observer K. Korlevic.  1.0-m f/2.9 reflector
        + CCD.
    P93 Space Tracking and Communications Center, JAXA.  Observers K. Nishiyama,
        S. Okumura.  1.0-m f/3.0 reflector + CCD.
    T05 ATLAS-HKO, Haleakala.  Observers L. Denneau, J. Tonry, A. Heinze,
        H. Weiland, H. Flewelling.  Measurers L. Denneau, J. Tonry, A. Heinze,
        H. Weiland, H. Flewelling, B. Stalder, A. Fitzsimmons, D. Young,
        N. Erasmus.  0.5-m reflector + CCD.
    U63 Burnt Tree Hill Observatory, Cle Elum.  Observer B. Van Deventer.  0.4-m
        Schmidt-Cassegrain + CCD.
    Z80 Northolt Branch Observatory.  Observer G. Wells.  Measurers G. Wells,
        D. Bamberger.  0.25-m f/8.0 Ritchey-Chretien + CCD.
    
    Orbital elements:
    2019 JU5                                                 Earth MOID = 0.0232 AU
    Epoch 2019 Apr. 27.0 TT = JDT 2458600.5                 MPC
    M  55.58019              (2000.0)            P               Q
    n   0.88847135     Peri.  308.18062     -0.75939084     -0.65057346
    a   1.0716191      Node   191.24407     +0.61034959     -0.70755091
    e   0.1928917      Incl.    2.62459     +0.22538617     -0.27590920
    P   1.11           H   24.0           G   0.15           U   6
    Residuals in seconds of arc
    190509 T05  0.1+  0.1-    190509 106  0.5+  0.1-    190511 G40  0.3-  0.2+
    190509 T05  0.7+  0.5+    190510 J95  0.2-  0.0     190511 P93  0.4-  0.1+
    190509 T05  0.3-  0.1-    190510 J95  0.0   0.1-    190511 P93  0.1-  0.3-
    190509 T05  0.6-  0.2-    190510 J95  0.0   0.0     190511 P93  0.1+  0.2-
    190509 204  0.2-  0.1-    190510 J95  0.1+  0.3-    190511 I93  0.1-  0.4-
    190509 204  0.2-  0.0     190510 P93  0.3-  0.6+    190511 I93  0.5-  0.3+
    190509 204  0.1-  0.0     190510 P93  0.3-  0.3+    190511 I93  0.3-  0.1-
    190509 204  0.0   0.0     190510 P93  0.2-  0.7+    190511 Z80  0.8+  0.4+
    190509 595  0.7-  0.0     190510 K88  0.0   0.3+    190511 Z80  0.2+  0.4-
    190509 K38  0.3-  0.0     190510 K88  0.3-  0.4+    190511 Z80  0.2-  0.2-
    190509 595  0.5-  0.4-    190510 K88  0.0   0.2+    190512 C95  0.3-  0.4-
    190509 595  0.1-  0.5+    190510 C77  1.2-  2.1+    190512 C95  0.4-  0.1-
    190509 595  0.0   0.2-    190510 K63  0.0   0.1-    190512 C95  0.5-  0.0
    190509 K38  0.4-  0.0     190510 C77  0.3+  0.4+    190512 C95  0.2-  0.7-
    190509 595  0.0   0.4+    190510 K63  0.3-  0.0     190512 G40  0.1+  0.0
    190509 L01  0.0   0.1-    190510 K63  0.3+  0.0     190512 G40  0.0   0.1-
    190509 K38  0.0   0.2+    190510 C77  0.6+  0.1-    190512 U63  0.1+  0.1+
    190509 L01  0.1-  0.1-    190510 K63  0.1-  0.3+    190512 U63  0.0   1.4+
    190509 L01  0.1-  0.1-    190510 K63  0.0   0.0     190512 T05  0.3+  0.7+
    190509 106  0.1+  0.3+    190510 203  0.2-  0.1-    190512 T05  0.7+  0.1-
    190509 106  0.5+  0.0     190510 203  0.2+  0.4+    190512 U63  0.7+  0.3+
    190509 106  0.4+  0.4+    190510 203  0.1+  0.2-    190512 T05  0.2+  0.6+
    190509 106  0.4+  0.2-    190510 104  0.2+  0.1+    190512 T05  0.2+  0.0
    190509 106  1.0+  0.1-    190510 104  0.0   0.1-    190512 F51  0.0   0.1-
    190509 106  0.4+  0.0     190510 104  0.1-  0.1-    190512 U63  0.3+  0.4-
    190509 106  0.2+  0.2-    190511 118  0.5-  0.8-    190512 F51  0.0   0.1-
    190509 106  0.4+  0.1+    190511 118  0.4-  1.5-    190512 U63  0.2+  0.3+
    190509 106  0.5+  0.3+    190511 118  0.2+  1.1-    190512 F51  0.0   0.1-
    190509 106  0.3+  0.3+    190511 G40  0.2-  0.2-
    190509 106  0.2+  0.0     190511 G40  0.3-  0.1+
    
    Ephemeris:
    2019 JU5                 a,e,i = 1.07, 0.19, 3                   q = 0.8649
    Date    TT    R. A. (2000) Decl.     Delta      r     Elong.  Phase     V
    2019 04 12    03 08 08.8 +22 42 27   0.07115 0.9411    29.7   148.2    26.2
    ...
    2019 04 27    03 08 05.8 +58 56 59   0.02928 0.9864    46.4   132.4    22.3
    ...
    2019 05 05    15 21 59.3 +66 06 35   0.02572 1.0121    97.6    81.0    18.9
    ...
    2019 05 11    15 16 35.6 +36 38 29   0.03681 1.0317   125.7    52.7    18.8
    2019 05 12    15 16 19.2 +33 29 40   0.03927 1.0350   128.6    49.7    18.9
    2019 05 13    15 16 06.2 +30 42 12   0.04184 1.0383   131.1    47.2    19.0
    ...
    2019 05 19    15 15 31.8 +19 03 22   0.05880 1.0578   140.8    37.1    19.5
    ...
    2019 05 27    15 15 51.5 +10 30 21   0.08422 1.0834   145.4    32.1    20.2
    ...
    2019 06 11    15 20 23.5 +01 39 04   0.1391  1.1293   142.8    32.9    21.4
    
    A. U. Tomatic                (C) Copyright 2019 MPC           M.P.E.C. 2019-J117
    

    Read MPEC 2019-J116 Read MPEC 2019-J118


    MPEC number:

    Enter an MPEC number in one of the following forms:

    • 1997-B01 (the full form)
    • J97B01 (the packed version of the full form)
    • B01 (the abbreviated form)